Skip Page Navigation
NASA JPL Caltech
NASA Logo - Jet Propulsion Laboratory + View the NASA Portal
+ Center for Near-Earth Object Studies
JPL Home Earth Solar System Stars & Galaxies Technology
JPL Solar System Dynamics
BODIES ORBITS EPHEMERIDES TOOLS PHYSICAL DATA DISCOVERY FAQ SITE MAP
JPL Small-Body Database Browser
Search: [ help ]  
105983 (2000 SE269)
Classification: Main-belt Asteroid          SPK-ID: 2105983
Ephemeris | Orbit Diagram | Orbital Elements | Mission Design | Physical Parameters | Discovery Circumstances | Close-Approach Data ]

[ show orbit diagram ]
Orbital Elements at Epoch 2459000.5 (2020-May-31.0) TDB
Reference: JPL 16 (heliocentric ecliptic J2000)
 Element Value Uncertainty (1-sigma)   Units 
e .1415245599060464 4.0129e-08  
a 2.272489787847984 1.0577e-08 au
q 1.950876670731813 9.2262e-08 au
i 6.725103813456617 5.8311e-06 deg
node 54.11648483130243 3.9229e-05 deg
peri 30.54155375183937 4.5126e-05 deg
M 223.1506194062017 2.2506e-05 deg
tp 2459476.154568706944
(2021-Sep-18.65456871)
7.9638e-05 TDB
period 1251.270878914448
3.43
8.7355e-06
2.392e-08
d
yr
n .287707486897099 2.0086e-09 deg/d
Q 2.594102904964154 1.2073e-08 au
  Orbit Determination Parameters
   # obs. used (total)      594  
   data-arc span      8806 days (24.11 yr)  
   first obs. used      1995-04-27  
   last obs. used      2019-06-06  
   planetary ephem.      DE431  
   SB-pert. ephem.      SB431-N16  
   condition code      0  
   norm. resid. RMS      .53135  
   source      ORB  
   producer      Otto Matic  
   solution date      2020-Feb-24 02:32:26  

Additional Information
 Earth MOID = .969999 au 
 Jupiter MOID = 2.62376 au 
 T_jup = 3.589 
[ show covariance matrix ]

Ephemeris | Orbit Diagram | Orbital Elements | Mission Design | Physical Parameters | Discovery Circumstances | Close-Approach Data ]

Physical Parameter Table
Parameter Symbol Value Units Sigma Reference Notes
absolute magnitude H 16.1   n/a MPO338019  
diameter diameter 2.170 km 0.242 urn:nasa:pds:neowise_diameters_albedos::2.0[mainbelt] (http://adsabs.harvard.edu/abs/2011ApJ...741...68M)  
geometric albedo albedo 0.164   0.049 urn:nasa:pds:neowise_diameters_albedos::2.0[mainbelt] (http://adsabs.harvard.edu/abs/2011ApJ...741...68M)  

105983 (2000 SE269)          Discovered 2000-Sep-27 by LINEAR at Socorro
Reference: 20051019/Numbers.arcLast Updated: 2005-10-26

[ hide close-approach data ]
Close-Approach Data   ...sorted by Date/Time (TDB)
Date/Time (TDB) Time Uncertainty
(days_HH:MM)
Body Nominal Distance (au) Minimum Distance (au) Maximum Distance (au) V-relative (km/s) V-infinity (km/s) JD (TDB) Time Uncertainty (minutes) Semi-major axis (km) Semi-minor axis (km) range-LOV angle (deg) N-sigma BP Orbit Ref. Reference Modified
2110-Feb-23 08:57 00:01 Juno 0.0184019478415163 0.0183917152645861 0.0184122080536845 6.48314251561212 6.48314241363644 2491774.872899421 1.14336729949609 1237.46873696768 37.4652493342866 65.680561696713 66936.7054869517 T 16 CATAB v2.0f-lin.ifort 2020-Feb-24 02:32:40 2020-Feb-24 02:32
Ephemeris | Orbit Diagram | Orbital Elements | Mission Design | Physical Parameters | Discovery Circumstances | Close-Approach Data ]
ABOUT SSD CREDITS/AWARDS PRIVACY/COPYRIGHT GLOSSARY LINKS
FirstGov 2020-Aug-11 11:01 UT
(server date/time)  
NASA Home Page
Site Manager:   Ryan S. Park
Webmaster  Alan B. Chamberlin